Simultaneous Nadir Overpasses (SNOs) Predictions

Prediction of SNOs between GOES-14 and NOAA-20 Satellite Orbit:

Table of predicted SNOs for the next 14.0 days since TLE Epoch: 6/15/2019
Index Date Time (GOES-14) GOES-14 Lat,Lon NOAA-20 Lat,Lon Distance(km) Time Diff (sec)
1 06/15/2019 20:23:34 0.03,-104.63 0.12,-104.36 31.86 80
2 06/18/2019 08:23:56 -0.05,-104.50 0.06,-105.09 66.93 80
3 06/19/2019 08:07:51 -0.03,-104.51 -0.93,-100.56 450.72 80
4 06/20/2019 20:27:07 0.06,-104.66 -0.21,-105.87 137.52 80
5 06/21/2019 20:11:01 0.05,-104.67 0.78,-101.33 379.94 80
6 06/23/2019 08:30:09 -0.08,-104.53 0.39,-106.60 236.15 80
7 06/24/2019 08:14:03 -0.06,-104.54 -0.60,-102.06 281.71 80
8 06/25/2019 20:33:20 0.09,-104.70 -0.54,-107.38 305.65 80
9 06/26/2019 20:17:15 0.08,-104.71 0.52,-102.85 212.01 80
10 06/28/2019 08:36:22 -0.11,-104.57 0.66,-108.12 404.66 80
11 06/29/2019 08:20:17 -0.10,-104.57 -0.33,-103.58 112.99 80




NCC Satellite Simultaneous Nadir Overpasses (SNOs) Prediction Service
